Zurück zum Katalog

OPS 4682 DEB

AktivPO
NORAD 49110·DEBRIS·🇺🇸 United States

Gestartet Apr 3, 1965 von Vandenberg Space Force Base

Loading…

Nächste Überflüge (nächste 24 Stunden)

TLE

AlterndSource: Space-Track

Epoche: Sep 5, 2026, 19:14 UTC

1 49110U 65027FT  26248.80142697  .00000799  00000-0  26542-2 0  9990
2 49110  90.2586  14.7636 0040034 175.5699 184.5785 12.99150472446807

Verfolge OPS 4682 DEB in Echtzeit mit AllMySat

Download on the App Store